TimePST,TemperatureF,Dew PointF,Humidity,Sea Level PressureIn,VisibilityMPH,Wind Direction,Wind SpeedMPH,Gust SpeedMPH,PrecipitationIn,Events,Conditions,WindDirDegrees,DateUTC
1:07 AM,33.8,32.0,93,30.21,1.2,West,15.0,28.8,0.02,Rain,Light Rain,280,2013-02-13 09:07:00
1:19 AM,33.8,32.0,93,30.21,0.8,West,13.8,26.5,0.03,Rain,Light Rain,270,2013-02-13 09:19:00
2:19 AM,33.8,32.0,93,30.20,0.5,WSW,10.4,20.7,0.03,Fog,Fog,250,2013-02-13 10:19:00
6:56 AM,32.0,28.9,88,30.30,10.0,West,15.0,27.6,0.01,,Overcast,270,2013-02-13 14:56:00
7:22 AM,32.0,28.4,87,30.24,10.0,West,12.7,29.9,N/A,,Overcast,270,2013-02-13 15:22:00
8:38 AM,30.2,28.4,93,30.26,2.0,West,13.8,28.8,N/A,,Overcast,270,2013-02-13 16:38:00
8:43 AM,30.2,28.4,93,30.26,1.8,West,18.4,29.9,N/A,,Overcast,280,2013-02-13 16:43:00
8:56 AM,30.0,28.0,92,30.34,0.5,West,11.5,24.2,0.00,Fog-Snow,Light Snow,270,2013-02-13 16:56:00
10:07 AM,28.4,26.6,93,30.28,1.5,West,15.0,26.5,N/A,,Overcast,280,2013-02-13 18:07:00
10:09 AM,28.4,26.6,93,30.28,4.0,West,13.8,27.6,N/A,,Overcast,270,2013-02-13 18:09:00
10:29 AM,28.4,28.4,100,30.28,10.0,West,11.5,27.6,N/A,,Overcast,260,2013-02-13 18:29:00
1:39 PM,30.2,28.4,93,30.28,1.2,West,10.4,23.0,0.00,Snow,Light Snow,270,2013-02-13 21:39:00
1:44 PM,30.2,28.4,93,30.28,0.8,West,8.1,19.6,0.00,Snow,Light Snow,270,2013-02-13 21:44:00
1:53 PM,30.2,28.4,93,30.28,0.5,West,9.2,18.4,0.00,Fog-Snow,Light Snow,270,2013-02-13 21:53:00
1:56 PM,30.0,28.9,96,30.36,0.5,West,9.2,18.4,0.00,Fog-Snow,Light Snow,270,2013-02-13 21:56:00
2:23 PM,30.2,28.4,93,30.29,0.2,West,10.4,21.9,0.00,Fog-Snow,Light Snow,260,2013-02-13 22:23:00
3:14 PM,30.2,28.4,93,30.30,0.2,West,9.2,18.4,0.01,Fog-Snow,Light Snow,270,2013-02-13 23:14:00
5:34 PM,30.2,28.4,93,30.31,1.0,West,8.1,-,0.01,Snow,Light Snow,260,2013-02-14 01:34:00
5:38 PM,30.2,28.4,93,30.31,1.5,West,9.2,-,0.01,Snow,Light Snow,260,2013-02-14 01:38:00
5:43 PM,30.2,28.4,93,30.30,3.0,WSW,8.1,-,0.01,,Overcast,250,2013-02-14 01:43:00
6:03 PM,30.2,28.4,93,30.31,0.8,West,8.1,-,0.00,Snow,Light Snow,260,2013-02-14 02:03:00
6:21 PM,30.2,28.4,93,30.31,0.2,West,8.1,-,0.01,Fog-Snow,Light Snow,270,2013-02-14 02:21:00
7:41 PM,30.2,28.4,93,30.33,1.0,Variable,6.9,-,0.00,,Overcast,0,2013-02-14 03:41:00